Time,TemperatureF,DewpointF,PressureIn,WindDirection,WindDirectionDegrees,WindSpeedMPH,WindSpeedGustMPH,Humidity,HourlyPrecipIn,Conditions,Clouds,dailyrainin,SoftwareType,DateUTC
2013-08-07 00:02:00,62.8,58.2,29.80,North,0,0.0,0.0,85,0.00,,,0.00,WUHU21623XXSP,2013-08-07 05:02:00,
2013-08-07 00:07:00,62.4,57.8,29.79,North,0,0.0,0.0,85,0.00,,,0.00,WUHU21623XXSP,2013-08-07 05:07:00,
2013-08-07 00:12:00,62.4,58.2,29.79,North,0,0.0,0.0,86,0.00,,,0.00,WUHU21623XXSP,2013-08-07 05:12:00,
2013-08-07 00:17:00,62.4,58.2,29.80,North,0,0.0,0.0,86,0.00,,,0.00,WUHU21623XXSP,2013-08-07 05:17:00,
2013-08-07 00:22:00,62.4,58.2,29.80,North,0,0.0,0.0,86,0.00,,,0.00,WUHU21623XXSP,2013-08-07 05:22:00,
2013-08-07 00:27:00,62.2,58.3,29.81,North,0,0.0,0.0,87,0.00,,,0.00,WUHU21623XXSP,2013-08-07 05:27:00,
2013-08-07 00:32:00,62.2,58.3,29.81,North,0,0.0,0.0,87,0.00,,,0.00,WUHU21623XXSP,2013-08-07 05:32:00,
2013-08-07 00:37:00,62.2,58.3,29.81,North,0,0.0,0.0,87,0.00,,,0.00,WUHU21623XXSP,2013-08-07 05:37:00,
2013-08-07 00:42:00,62.1,58.2,29.81,North,0,0.0,0.0,87,0.00,,,0.00,WUHU21623XXSP,2013-08-07 05:42:00,
2013-08-07 00:47:00,61.9,58.0,29.81,North,0,0.0,0.0,87,0.00,,,0.00,WUHU21623XXSP,2013-08-07 05:47:00,
2013-08-07 00:52:00,61.9,58.3,29.81,North,0,0.0,0.0,88,0.00,,,0.00,WUHU21623XXSP,2013-08-07 05:52:00,
2013-08-07 00:57:00,61.9,58.3,29.80,North,0,0.0,0.0,88,0.00,,,0.00,WUHU21623XXSP,2013-08-07 05:57:00,
2013-08-07 01:02:00,61.9,58.3,29.80,North,0,0.0,0.0,88,0.00,,,0.00,WUHU21623XXSP,2013-08-07 06:02:00,
2013-08-07 01:12:00,61.9,58.3,29.81,North,0,0.0,0.0,88,0.00,,,0.00,WUHU21623XXSP,2013-08-07 06:12:00,
2013-08-07 01:17:00,61.5,58.0,29.81,North,0,0.0,0.0,88,0.00,,,0.00,WUHU21623XXSP,2013-08-07 06:17:00,
2013-08-07 01:22:00,61.5,58.0,29.81,North,0,0.0,0.0,88,0.00,,,0.00,WUHU21623XXSP,2013-08-07 06:22:00,
2013-08-07 01:27:00,61.5,58.0,29.81,North,0,0.0,0.0,88,0.00,,,0.00,WUHU21623XXSP,2013-08-07 06:27:00,
2013-08-07 01:32:00,61.3,58.1,29.81,North,0,0.0,0.0,89,0.00,,,0.00,WUHU21623XXSP,2013-08-07 06:32:00,
2013-08-07 01:37:00,61.3,58.1,29.81,North,0,0.0,0.0,89,0.00,,,0.00,WUHU21623XXSP,2013-08-07 06:37:00,
2013-08-07 01:42:00,61.3,58.5,29.81,North,0,0.0,0.0,90,0.00,,,0.00,WUHU21623XXSP,2013-08-07 06:42:00,
2013-08-07 01:47:00,61.3,58.5,29.82,North,0,0.0,0.0,90,0.00,,,0.00,WUHU21623XXSP,2013-08-07 06:47:00,
2013-08-07 01:52:00,61.3,58.5,29.82,North,0,0.0,0.0,90,0.00,,,0.00,WUHU21623XXSP,2013-08-07 06:52:00,
2013-08-07 01:57:00,61.3,58.5,29.82,North,0,0.0,0.0,90,0.00,,,0.00,WUHU21623XXSP,2013-08-07 06:57:00,
2013-08-07 02:02:00,61.3,58.5,29.83,North,0,0.0,0.0,90,0.00,,,0.00,WUHU21623XXSP,2013-08-07 07:02:00,
2013-08-07 02:07:00,61.3,58.5,29.82,North,0,0.0,0.0,90,0.00,,,0.00,WUHU21623XXSP,2013-08-07 07:07:00,
2013-08-07 02:12:00,61.3,58.7,29.82,North,0,0.0,0.0,91,0.00,,,0.00,WUHU21623XXSP,2013-08-07 07:12:00,
2013-08-07 02:17:00,61.3,58.7,29.82,North,0,0.0,0.0,91,0.00,,,0.00,WUHU21623XXSP,2013-08-07 07:17:00,
2013-08-07 02:22:00,61.3,58.7,29.82,North,0,0.0,0.0,91,0.00,,,0.00,WUHU21623XXSP,2013-08-07 07:22:00,
2013-08-07 02:27:00,61.3,58.7,29.82,North,0,0.0,0.0,91,0.00,,,0.00,WUHU21623XXSP,2013-08-07 07:27:00,
2013-08-07 02:32:00,61.3,58.7,29.82,North,0,0.0,0.0,91,0.00,,,0.00,WUHU21623XXSP,2013-08-07 07:32:00,
2013-08-07 02:37:00,61.2,58.7,29.82,North,0,0.0,0.0,91,0.00,,,0.00,WUHU21623XXSP,2013-08-07 07:37:00,
2013-08-07 02:42:00,61.2,58.6,29.82,North,0,0.0,0.0,91,0.00,,,0.00,WUHU21623XXSP,2013-08-07 07:42:00,
2013-08-07 02:47:00,61.2,58.6,29.82,North,0,0.0,0.0,91,0.00,,,0.00,WUHU21623XXSP,2013-08-07 07:47:00,
2013-08-07 02:52:00,61.2,58.6,29.82,North,0,0.0,0.0,91,0.00,,,0.00,WUHU21623XXSP,2013-08-07 07:52:00,
2013-08-07 02:57:00,61.0,58.4,29.83,North,0,0.0,0.0,91,0.00,,,0.00,WUHU21623XXSP,2013-08-07 07:57:00,
2013-08-07 03:02:00,61.0,58.7,29.83,North,0,0.0,0.0,92,0.00,,,0.00,WUHU21623XXSP,2013-08-07 08:02:00,
2013-08-07 03:07:00,61.0,58.7,29.83,North,0,0.0,0.0,92,0.00,,,0.00,WUHU21623XXSP,2013-08-07 08:07:00,
2013-08-07 03:12:00,61.0,58.7,29.83,North,0,0.0,0.0,92,0.00,,,0.00,WUHU21623XXSP,2013-08-07 08:12:00,
2013-08-07 03:17:00,61.0,58.7,29.83,North,0,0.0,0.0,92,0.00,,,0.00,WUHU21623XXSP,2013-08-07 08:17:00,
2013-08-07 03:22:00,61.0,58.7,29.83,North,0,0.0,0.0,92,0.00,,,0.00,WUHU21623XXSP,2013-08-07 08:22:00,
2013-08-07 03:27:00,61.0,58.7,29.83,North,0,0.0,0.0,92,0.00,,,0.00,WUHU21623XXSP,2013-08-07 08:27:00,
2013-08-07 03:32:00,61.0,58.7,29.83,North,0,0.0,0.0,92,0.00,,,0.00,WUHU21623XXSP,2013-08-07 08:32:00,
2013-08-07 03:37:00,61.0,58.7,29.83,North,0,0.0,0.0,92,0.00,,,0.00,WUHU21623XXSP,2013-08-07 08:37:00,
2013-08-07 03:42:00,61.0,58.7,29.83,North,0,0.0,0.0,92,0.00,,,0.00,WUHU21623XXSP,2013-08-07 08:42:00,
2013-08-07 03:47:00,61.0,58.7,29.83,North,0,0.0,0.0,92,0.00,,,0.00,WUHU21623XXSP,2013-08-07 08:47:00,
2013-08-07 03:52:00,61.0,59.0,29.83,North,0,0.0,0.0,93,0.00,,,0.00,WUHU21623XXSP,2013-08-07 08:52:00,
2013-08-07 03:57:00,61.0,59.0,29.84,North,0,0.0,0.0,93,0.00,,,0.00,WUHU21623XXSP,2013-08-07 08:57:00,
2013-08-07 04:02:00,61.0,59.0,29.84,North,0,0.0,0.0,93,0.00,,,0.00,WUHU21623XXSP,2013-08-07 09:02:00,
2013-08-07 04:07:00,61.0,59.0,29.84,North,0,0.0,0.0,93,0.00,,,0.00,WUHU21623XXSP,2013-08-07 09:07:00,
2013-08-07 04:12:00,60.8,58.8,29.84,North,0,0.0,0.0,93,0.00,,,0.00,WUHU21623XXSP,2013-08-07 09:12:00,
2013-08-07 04:17:00,60.6,58.6,29.84,North,0,0.0,0.0,93,0.00,,,0.00,WUHU21623XXSP,2013-08-07 09:17:00,
2013-08-07 04:22:00,60.8,58.8,29.85,North,0,0.0,0.0,93,0.00,,,0.00,WUHU21623XXSP,2013-08-07 09:22:00,
2013-08-07 04:27:00,60.6,58.6,29.84,North,0,0.0,0.0,93,0.00,,,0.00,WUHU21623XXSP,2013-08-07 09:27:00,
2013-08-07 04:32:00,60.6,58.6,29.84,North,0,0.0,0.0,93,0.00,,,0.00,WUHU21623XXSP,2013-08-07 09:32:00,
2013-08-07 04:37:00,60.6,58.6,29.84,North,0,0.0,0.0,93,0.00,,,0.00,WUHU21623XXSP,2013-08-07 09:37:00,
2013-08-07 04:42:00,60.6,58.6,29.84,North,0,0.0,0.0,93,0.00,,,0.00,WUHU21623XXSP,2013-08-07 09:42:00,
2013-08-07 04:47:00,60.6,58.6,29.85,North,0,0.0,0.0,93,0.00,,,0.00,WUHU21623XXSP,2013-08-07 09:47:00,
2013-08-07 04:52:00,60.6,58.6,29.85,North,0,0.0,0.0,93,0.00,,,0.00,WUHU21623XXSP,2013-08-07 09:52:00,
2013-08-07 04:57:00,60.6,58.6,29.84,North,0,0.0,0.0,93,0.00,,,0.00,WUHU21623XXSP,2013-08-07 09:57:00,
2013-08-07 05:02:00,60.6,58.6,29.84,North,0,0.0,0.0,93,0.00,,,0.00,WUHU21623XXSP,2013-08-07 10:02:00,
2013-08-07 05:07:00,60.6,58.6,29.85,North,0,0.0,0.0,93,0.00,,,0.00,WUHU21623XXSP,2013-08-07 10:07:00,
2013-08-07 05:12:00,60.6,58.6,29.85,North,0,0.0,0.0,93,0.00,,,0.00,WUHU21623XXSP,2013-08-07 10:12:00,
2013-08-07 05:17:00,60.6,58.6,29.84,North,0,0.0,0.0,93,0.00,,,0.00,WUHU21623XXSP,2013-08-07 10:17:00,
2013-08-07 05:22:00,60.6,58.6,29.85,North,0,0.0,0.0,93,0.00,,,0.00,WUHU21623XXSP,2013-08-07 10:22:00,
2013-08-07 05:28:00,60.6,58.6,29.85,North,0,0.0,0.0,93,0.00,,,0.00,WUHU21623XXSP,2013-08-07 10:28:00,
2013-08-07 05:33:00,60.6,58.6,29.86,North,0,0.0,0.0,93,0.00,,,0.00,WUHU21623XXSP,2013-08-07 10:33:00,
2013-08-07 05:38:00,60.4,58.4,29.86,North,0,0.0,0.0,93,0.00,,,0.00,WUHU21623XXSP,2013-08-07 10:38:00,
2013-08-07 05:43:00,60.4,58.4,29.86,North,0,0.0,0.0,93,0.00,,,0.00,WUHU21623XXSP,2013-08-07 10:43:00,
2013-08-07 05:48:00,60.4,58.4,29.87,North,0,0.0,0.0,93,0.00,,,0.00,WUHU21623XXSP,2013-08-07 10:48:00,
2013-08-07 05:53:00,60.4,58.4,29.86,North,0,0.0,0.0,93,0.00,,,0.00,WUHU21623XXSP,2013-08-07 10:53:00,
2013-08-07 05:58:00,60.4,58.4,29.87,North,0,0.0,0.0,93,0.00,,,0.00,WUHU21623XXSP,2013-08-07 10:58:00,
2013-08-07 06:03:00,60.4,58.4,29.88,North,0,0.0,0.0,93,0.00,,,0.00,WUHU21623XXSP,2013-08-07 11:03:00,
2013-08-07 06:08:00,60.3,58.2,29.87,North,0,0.0,0.0,93,0.00,,,0.00,WUHU21623XXSP,2013-08-07 11:08:00,
2013-08-07 06:13:00,60.4,58.2,29.88,North,0,0.0,0.0,93,0.00,,,0.00,WUHU21623XXSP,2013-08-07 11:13:00,
2013-08-07 06:18:00,60.1,58.1,29.88,North,0,0.0,0.0,93,0.00,,,0.00,WUHU21623XXSP,2013-08-07 11:18:00,
2013-08-07 06:23:00,60.1,58.1,29.88,North,0,0.0,0.0,93,0.00,,,0.00,WUHU21623XXSP,2013-08-07 11:23:00,
2013-08-07 06:28:00,60.1,58.1,29.88,North,0,0.0,0.0,93,0.00,,,0.00,WUHU21623XXSP,2013-08-07 11:28:00,
2013-08-07 06:33:00,60.1,58.1,29.89,North,0,0.0,0.0,93,0.00,,,0.00,WUHU21623XXSP,2013-08-07 11:33:00,
2013-08-07 06:38:00,60.1,58.1,29.89,North,0,0.0,0.0,93,0.00,,,0.00,WUHU21623XXSP,2013-08-07 11:38:00,
2013-08-07 06:43:00,60.1,58.1,29.89,North,0,0.0,0.0,93,0.00,,,0.00,WUHU21623XXSP,2013-08-07 11:43:00,
2013-08-07 06:48:00,60.1,58.1,29.89,North,0,0.0,0.0,93,0.00,,,0.00,WUHU21623XXSP,2013-08-07 11:48:00,
2013-08-07 06:53:00,60.3,58.2,29.89,North,0,0.0,0.0,93,0.00,,,0.00,WUHU21623XXSP,2013-08-07 11:53:00,
2013-08-07 06:58:00,60.4,58.4,29.89,North,0,0.0,0.0,93,0.00,,,0.00,WUHU21623XXSP,2013-08-07 11:58:00,
2013-08-07 07:03:00,60.4,58.4,29.90,North,0,0.0,0.0,93,0.00,,,0.00,WUHU21623XXSP,2013-08-07 12:03:00,
2013-08-07 07:08:00,60.4,58.4,29.90,North,0,0.0,0.0,93,0.00,,,0.00,WUHU21623XXSP,2013-08-07 12:08:00,
2013-08-07 07:13:00,60.4,58.1,29.90,North,0,0.0,0.0,92,0.00,,,0.00,WUHU21623XXSP,2013-08-07 12:13:00,
2013-08-07 07:18:00,60.4,58.1,29.90,North,0,0.0,0.0,92,0.00,,,0.00,WUHU21623XXSP,2013-08-07 12:18:00,
2013-08-07 07:23:00,60.6,58.3,29.90,North,0,0.0,0.0,92,0.00,,,0.00,WUHU21623XXSP,2013-08-07 12:23:00,
2013-08-07 07:28:00,60.8,58.3,29.91,North,0,0.0,0.0,92,0.00,,,0.00,WUHU21623XXSP,2013-08-07 12:28:00,
2013-08-07 07:33:00,61.0,58.7,29.91,North,0,0.0,0.0,92,0.00,,,0.00,WUHU21623XXSP,2013-08-07 12:33:00,
2013-08-07 07:38:00,61.0,58.4,29.91,North,0,0.0,0.0,91,0.00,,,0.00,WUHU21623XXSP,2013-08-07 12:38:00,
2013-08-07 07:43:00,61.0,58.4,29.92,North,0,0.0,0.0,91,0.00,,,0.00,WUHU21623XXSP,2013-08-07 12:43:00,
2013-08-07 07:48:00,61.2,58.6,29.93,North,0,0.0,0.0,91,0.00,,,0.00,WUHU21623XXSP,2013-08-07 12:48:00,
2013-08-07 07:53:00,61.2,58.6,29.93,North,0,0.0,0.0,91,0.00,,,0.00,WUHU21623XXSP,2013-08-07 12:53:00,
2013-08-07 07:58:00,61.3,58.5,29.92,North,0,0.0,0.0,90,0.00,,,0.00,WUHU21623XXSP,2013-08-07 12:58:00,
2013-08-07 08:03:00,61.5,58.3,29.92,North,0,0.0,0.0,89,0.00,,,0.00,WUHU21623XXSP,2013-08-07 13:03:00,
2013-08-07 08:08:00,61.5,58.3,29.92,North,0,0.0,0.0,89,0.00,,,0.00,WUHU21623XXSP,2013-08-07 13:08:00,
2013-08-07 08:13:00,61.5,58.0,29.92,North,0,0.0,0.0,88,0.00,,,0.00,WUHU21623XXSP,2013-08-07 13:13:00,
2013-08-07 08:18:00,61.5,58.0,29.92,North,0,0.0,0.0,88,0.00,,,0.00,WUHU21623XXSP,2013-08-07 13:18:00,
2013-08-07 08:23:00,61.5,58.0,29.92,North,0,0.0,0.0,88,0.00,,,0.00,WUHU21623XXSP,2013-08-07 13:23:00,
2013-08-07 08:28:00,61.5,58.0,29.93,North,0,0.0,0.0,88,0.00,,,0.00,WUHU21623XXSP,2013-08-07 13:28:00,
2013-08-07 08:33:00,61.7,58.2,29.93,North,0,0.0,0.0,88,0.00,,,0.00,WUHU21623XXSP,2013-08-07 13:33:00,
2013-08-07 08:38:00,61.9,58.3,29.93,North,0,0.0,0.0,88,0.00,,,0.00,WUHU21623XXSP,2013-08-07 13:38:00,
2013-08-07 08:43:00,62.4,58.5,29.93,North,0,0.0,0.0,87,0.00,,,0.00,WUHU21623XXSP,2013-08-07 13:43:00,
2013-08-07 08:48:00,62.6,58.7,29.93,North,0,0.0,0.0,87,0.00,,,0.00,WUHU21623XXSP,2013-08-07 13:48:00,
2013-08-07 08:53:00,63.0,59.1,29.93,North,0,0.0,0.0,87,0.00,,,0.00,WUHU21623XXSP,2013-08-07 13:53:00,
2013-08-07 08:58:00,63.3,59.1,29.94,North,0,0.0,0.0,86,0.00,,,0.00,WUHU21623XXSP,2013-08-07 13:58:00,
2013-08-07 09:03:00,63.7,59.1,29.94,North,0,0.0,0.0,85,0.00,,,0.00,WUHU21623XXSP,2013-08-07 14:03:00,
2013-08-07 09:08:00,64.0,59.1,29.95,North,0,0.0,0.0,84,0.00,,,0.00,WUHU21623XXSP,2013-08-07 14:08:00,
2013-08-07 09:13:00,64.4,59.5,29.95,North,0,0.0,0.0,84,0.00,,,0.00,WUHU21623XXSP,2013-08-07 14:13:00,
2013-08-07 09:18:00,64.6,59.3,29.95,North,0,0.0,0.0,83,0.00,,,0.00,WUHU21623XXSP,2013-08-07 14:18:00,
2013-08-07 09:23:00,64.2,58.6,29.95,North,0,0.0,0.0,82,0.00,,,0.00,WUHU21623XXSP,2013-08-07 14:23:00,
2013-08-07 09:28:00,64.0,58.1,29.95,North,0,0.0,0.0,81,0.00,,,0.00,WUHU21623XXSP,2013-08-07 14:28:00,
2013-08-07 09:33:00,64.0,58.4,29.95,North,0,0.0,0.0,82,0.00,,,0.00,WUHU21623XXSP,2013-08-07 14:33:00,
2013-08-07 09:38:00,64.6,58.9,29.96,North,0,0.0,0.0,82,0.00,,,0.00,WUHU21623XXSP,2013-08-07 14:38:00,
2013-08-07 09:43:00,64.6,58.3,29.96,North,0,0.0,0.0,80,0.00,,,0.00,WUHU21623XXSP,2013-08-07 14:43:00,
2013-08-07 09:48:00,64.2,57.6,29.96,North,0,0.0,0.0,79,0.00,,,0.00,WUHU21623XXSP,2013-08-07 14:48:00,
2013-08-07 09:53:00,64.2,57.6,29.96,North,0,0.0,0.0,79,0.00,,,0.00,WUHU21623XXSP,2013-08-07 14:53:00,
2013-08-07 09:58:00,64.8,58.1,29.95,North,0,0.0,0.0,79,0.00,,,0.00,WUHU21623XXSP,2013-08-07 14:58:00,
2013-08-07 10:03:00,65.1,58.4,29.96,North,0,0.0,0.0,79,0.00,,,0.00,WUHU21623XXSP,2013-08-07 15:03:00,
2013-08-07 10:08:00,65.5,58.8,29.96,North,0,0.0,0.0,79,0.00,,,0.00,WUHU21623XXSP,2013-08-07 15:08:00,
2013-08-07 10:13:00,65.8,59.2,29.96,North,0,0.0,0.0,79,0.00,,,0.00,WUHU21623XXSP,2013-08-07 15:13:00,
2013-08-07 10:18:00,66.0,58.6,29.95,North,0,0.0,0.0,77,0.00,,,0.00,WUHU21623XXSP,2013-08-07 15:18:00,
2013-08-07 10:23:00,66.0,58.2,29.96,North,0,0.0,0.0,76,0.00,,,0.00,WUHU21623XXSP,2013-08-07 15:23:00,
2013-08-07 10:28:00,65.8,57.7,29.96,North,0,0.0,0.0,75,0.00,,,0.00,WUHU21623XXSP,2013-08-07 15:28:00,
2013-08-07 10:33:00,66.0,57.8,29.96,North,0,0.0,0.0,75,0.00,,,0.00,WUHU21623XXSP,2013-08-07 15:33:00,
2013-08-07 10:38:00,66.4,58.2,29.96,North,0,0.0,0.0,75,0.00,,,0.00,WUHU21623XXSP,2013-08-07 15:38:00,
2013-08-07 10:43:00,66.4,57.4,29.96,North,0,0.0,0.0,73,0.00,,,0.00,WUHU21623XXSP,2013-08-07 15:43:00,
2013-08-07 10:48:00,66.4,57.4,29.96,North,0,0.0,0.0,73,0.00,,,0.00,WUHU21623XXSP,2013-08-07 15:48:00,
2013-08-07 10:53:00,66.6,57.6,29.96,North,0,0.0,0.0,73,0.00,,,0.00,WUHU21623XXSP,2013-08-07 15:53:00,
2013-08-07 10:58:00,66.7,57.4,29.96,North,0,0.0,0.0,72,0.00,,,0.00,WUHU21623XXSP,2013-08-07 15:58:00,
2013-08-07 11:04:00,66.7,57.4,29.97,North,0,0.0,0.0,72,0.00,,,0.00,WUHU21623XXSP,2013-08-07 16:04:00,
2013-08-07 11:08:00,67.1,57.8,29.97,North,0,0.0,0.0,72,0.00,,,0.00,WUHU21623XXSP,2013-08-07 16:08:00,
2013-08-07 11:14:00,67.1,57.4,29.97,North,0,0.0,0.0,71,0.00,,,0.00,WUHU21623XXSP,2013-08-07 16:14:00,
2013-08-07 11:19:00,67.3,58.0,29.97,North,0,0.0,0.0,72,0.00,,,0.00,WUHU21623XXSP,2013-08-07 16:19:00,
2013-08-07 11:24:00,67.6,57.6,29.97,North,0,0.0,0.0,70,0.00,,,0.00,WUHU21623XXSP,2013-08-07 16:24:00,
2013-08-07 11:29:00,67.6,57.1,29.97,North,0,0.0,0.0,69,0.00,,,0.00,WUHU21623XXSP,2013-08-07 16:29:00,
2013-08-07 11:34:00,67.8,57.7,29.97,North,0,0.0,0.0,70,0.00,,,0.00,WUHU21623XXSP,2013-08-07 16:34:00,
2013-08-07 11:39:00,68.2,57.7,29.98,North,0,0.0,0.0,69,0.00,,,0.00,WUHU21623XXSP,2013-08-07 16:39:00,
2013-08-07 11:44:00,68.2,57.2,29.98,North,0,0.0,0.0,68,0.00,,,0.00,WUHU21623XXSP,2013-08-07 16:44:00,
2013-08-07 11:49:00,68.5,58.0,29.98,North,0,0.0,0.0,69,0.00,,,0.00,WUHU21623XXSP,2013-08-07 16:49:00,
2013-08-07 11:54:00,68.7,57.7,29.98,North,0,0.0,0.0,68,0.00,,,0.00,WUHU21623XXSP,2013-08-07 16:54:00,
2013-08-07 11:59:00,69.1,58.0,29.98,North,0,0.0,0.0,68,0.00,,,0.00,WUHU21623XXSP,2013-08-07 16:59:00,
2013-08-07 12:04:00,69.4,58.4,29.99,North,0,0.0,0.0,68,0.00,,,0.00,WUHU21623XXSP,2013-08-07 17:04:00,
2013-08-07 12:09:00,69.6,57.7,29.98,North,0,0.0,0.0,66,0.00,,,0.00,WUHU21623XXSP,2013-08-07 17:09:00,
2013-08-07 12:14:00,69.6,57.3,29.98,North,0,0.0,0.0,65,0.00,,,0.00,WUHU21623XXSP,2013-08-07 17:14:00,
2013-08-07 12:19:00,69.6,57.3,29.98,North,0,0.0,0.0,65,0.00,,,0.00,WUHU21623XXSP,2013-08-07 17:19:00,
2013-08-07 12:24:00,69.6,57.3,29.99,North,0,0.0,0.0,65,0.00,,,0.00,WUHU21623XXSP,2013-08-07 17:24:00,
2013-08-07 12:29:00,69.6,56.9,29.98,North,0,0.0,0.0,63,0.00,,,0.00,WUHU21623XXSP,2013-08-07 17:29:00,
2013-08-07 12:34:00,69.6,56.5,29.98,North,0,0.0,0.0,63,0.00,,,0.00,WUHU21623XXSP,2013-08-07 17:34:00,
2013-08-07 12:39:00,69.6,57.3,29.98,North,0,0.0,0.0,65,0.00,,,0.00,WUHU21623XXSP,2013-08-07 17:39:00,
2013-08-07 12:44:00,70.2,58.2,29.98,North,0,0.0,0.0,66,0.00,,,0.00,WUHU21623XXSP,2013-08-07 17:44:00,
2013-08-07 12:49:00,70.3,57.1,29.98,North,0,0.0,0.0,63,0.00,,,0.00,WUHU21623XXSP,2013-08-07 17:49:00,
2013-08-07 12:54:00,70.3,57.1,29.98,North,0,0.0,0.0,63,0.00,,,0.00,WUHU21623XXSP,2013-08-07 17:54:00,
2013-08-07 12:59:00,70.5,57.3,29.98,North,0,0.0,0.0,63,0.00,,,0.00,WUHU21623XXSP,2013-08-07 17:59:00,
2013-08-07 13:04:00,70.7,56.6,29.99,North,0,0.0,0.0,61,0.00,,,0.00,WUHU21623XXSP,2013-08-07 18:04:00,
2013-08-07 13:09:00,70.7,56.6,29.99,North,0,0.0,0.0,61,0.00,,,0.00,WUHU21623XXSP,2013-08-07 18:09:00,
2013-08-07 13:14:00,70.9,56.4,29.98,North,0,0.0,0.0,60,0.00,,,0.00,WUHU21623XXSP,2013-08-07 18:14:00,
2013-08-07 13:19:00,70.9,56.8,29.98,North,0,0.0,0.0,61,0.00,,,0.00,WUHU21623XXSP,2013-08-07 18:19:00,
2013-08-07 13:24:00,71.1,56.5,29.98,North,0,0.0,0.0,60,0.00,,,0.00,WUHU21623XXSP,2013-08-07 18:24:00,
2013-08-07 13:29:00,71.2,56.2,29.98,North,0,0.0,0.0,59,0.00,,,0.00,WUHU21623XXSP,2013-08-07 18:29:00,
2013-08-07 13:34:00,71.2,56.2,29.98,North,0,0.0,0.0,59,0.00,,,0.00,WUHU21623XXSP,2013-08-07 18:34:00,
2013-08-07 13:39:00,71.4,56.9,29.98,North,0,0.0,0.0,60,0.00,,,0.00,WUHU21623XXSP,2013-08-07 18:39:00,
2013-08-07 13:44:00,71.6,57.0,29.98,North,0,0.0,0.0,60,0.00,,,0.00,WUHU21623XXSP,2013-08-07 18:44:00,
2013-08-07 13:49:00,71.8,56.2,29.98,North,0,0.0,0.0,58,0.00,,,0.00,WUHU21623XXSP,2013-08-07 18:49:00,
2013-08-07 13:54:00,72.0,55.8,29.98,North,0,0.0,0.0,57,0.00,,,0.00,WUHU21623XXSP,2013-08-07 18:54:00,
2013-08-07 13:59:00,72.0,55.3,29.98,North,0,0.0,0.0,56,0.00,,,0.00,WUHU21623XXSP,2013-08-07 18:59:00,
2013-08-07 14:04:00,72.0,54.8,29.98,North,0,0.0,0.0,55,0.00,,,0.00,WUHU21623XXSP,2013-08-07 19:04:00,
2013-08-07 14:09:00,72.0,54.8,29.98,North,0,0.0,0.0,55,0.00,,,0.00,WUHU21623XXSP,2013-08-07 19:09:00,
2013-08-07 14:14:00,72.1,55.0,29.98,North,0,0.0,0.0,55,0.00,,,0.00,WUHU21623XXSP,2013-08-07 19:14:00,
2013-08-07 14:19:00,72.3,54.6,29.98,North,0,0.0,0.0,54,0.00,,,0.00,WUHU21623XXSP,2013-08-07 19:19:00,
2013-08-07 14:24:00,72.3,54.1,29.98,North,0,0.0,0.0,53,0.00,,,0.00,WUHU21623XXSP,2013-08-07 19:24:00,
2013-08-07 14:30:00,72.3,54.6,29.98,North,0,0.0,0.0,54,0.00,,,0.00,WUHU21623XXSP,2013-08-07 19:30:00,
2013-08-07 14:35:00,72.5,54.8,29.98,North,0,0.0,0.0,54,0.00,,,0.00,WUHU21623XXSP,2013-08-07 19:35:00,
2013-08-07 14:40:00,72.7,54.5,29.98,North,0,0.0,0.0,53,0.00,,,0.00,WUHU21623XXSP,2013-08-07 19:40:00,
2013-08-07 14:45:00,72.9,54.6,29.98,North,0,0.0,0.0,53,0.00,,,0.00,WUHU21623XXSP,2013-08-07 19:45:00,
2013-08-07 14:50:00,73.0,55.8,29.98,North,0,0.0,0.0,55,0.00,,,0.00,WUHU21623XXSP,2013-08-07 19:50:00,
2013-08-07 14:55:00,73.2,56.5,29.98,North,0,0.0,0.0,56,0.00,,,0.00,WUHU21623XXSP,2013-08-07 19:55:00,
2013-08-07 15:00:00,73.6,56.3,29.98,North,0,0.0,0.0,55,0.00,,,0.00,WUHU21623XXSP,2013-08-07 20:00:00,
2013-08-07 15:05:00,73.8,56.5,29.98,North,0,0.0,0.0,55,0.00,,,0.00,WUHU21623XXSP,2013-08-07 20:05:00,
2013-08-07 15:10:00,73.8,56.5,29.98,North,0,0.0,0.0,55,0.00,,,0.00,WUHU21623XXSP,2013-08-07 20:10:00,
2013-08-07 15:15:00,73.9,56.2,29.98,North,0,0.0,0.0,54,0.00,,,0.00,WUHU21623XXSP,2013-08-07 20:15:00,
2013-08-07 15:20:00,73.9,56.2,29.98,North,0,0.0,0.0,54,0.00,,,0.00,WUHU21623XXSP,2013-08-07 20:20:00,
2013-08-07 15:25:00,73.9,55.7,29.98,North,0,0.0,0.0,53,0.00,,,0.00,WUHU21623XXSP,2013-08-07 20:25:00,
2013-08-07 15:30:00,74.1,56.3,29.98,North,0,0.0,0.0,54,0.00,,,0.00,WUHU21623XXSP,2013-08-07 20:30:00,
2013-08-07 15:35:00,74.1,56.8,29.98,North,0,0.0,0.0,55,0.00,,,0.00,WUHU21623XXSP,2013-08-07 20:35:00,
2013-08-07 15:40:00,74.3,56.5,29.98,North,0,0.0,0.0,54,0.00,,,0.00,WUHU21623XXSP,2013-08-07 20:40:00,
2013-08-07 15:45:00,74.7,56.9,29.98,North,0,0.0,0.0,54,0.00,,,0.00,WUHU21623XXSP,2013-08-07 20:45:00,
2013-08-07 15:50:00,74.8,57.1,29.98,North,0,0.0,0.0,54,0.00,,,0.00,WUHU21623XXSP,2013-08-07 20:50:00,
2013-08-07 15:55:00,75.0,58.2,29.98,North,0,0.0,0.0,56,0.00,,,0.00,WUHU21623XXSP,2013-08-07 20:55:00,
2013-08-07 16:00:00,75.0,56.7,29.98,North,0,0.0,0.0,53,0.00,,,0.00,WUHU21623XXSP,2013-08-07 21:00:00,
2013-08-07 16:05:00,75.1,57.4,29.98,North,0,0.0,0.0,54,0.00,,,0.00,WUHU21623XXSP,2013-08-07 21:05:00,
2013-08-07 16:10:00,75.1,56.4,29.98,North,0,0.0,0.0,52,0.00,,,0.00,WUHU21623XXSP,2013-08-07 21:10:00,
2013-08-07 16:15:00,75.1,56.4,29.98,North,0,0.0,0.0,52,0.00,,,0.00,WUHU21623XXSP,2013-08-07 21:15:00,
2013-08-07 16:20:00,75.3,56.0,29.98,North,0,0.0,0.0,51,0.00,,,0.00,WUHU21623XXSP,2013-08-07 21:20:00,
2013-08-07 16:25:00,75.2,54.8,29.98,North,0,0.0,0.0,49,0.00,,,0.00,WUHU21623XXSP,2013-08-07 21:25:00,
2013-08-07 16:30:00,75.0,55.2,29.98,North,0,0.0,0.0,50,0.00,,,0.00,WUHU21623XXSP,2013-08-07 21:30:00,
2013-08-07 16:35:00,74.9,55.1,29.98,North,0,0.0,0.0,50,0.00,,,0.00,WUHU21623XXSP,2013-08-07 21:35:00,
2013-08-07 16:40:00,74.8,54.4,29.98,North,0,0.0,0.0,49,0.00,,,0.00,WUHU21623XXSP,2013-08-07 21:40:00,
2013-08-07 16:45:00,75.0,55.2,29.98,North,0,0.0,0.0,50,0.00,,,0.00,WUHU21623XXSP,2013-08-07 21:45:00,
2013-08-07 16:50:00,75.0,55.8,29.98,North,0,0.0,0.0,51,0.00,,,0.00,WUHU21623XXSP,2013-08-07 21:50:00,
2013-08-07 16:55:00,74.7,54.9,29.98,North,0,0.0,0.0,50,0.00,,,0.00,WUHU21623XXSP,2013-08-07 21:55:00,
2013-08-07 17:00:00,74.6,55.3,29.97,North,0,0.0,0.0,51,0.00,,,0.00,WUHU21623XXSP,2013-08-07 22:00:00,
2013-08-07 17:05:00,74.7,54.4,29.98,North,0,0.0,0.0,49,0.00,,,0.00,WUHU21623XXSP,2013-08-07 22:05:00,
2013-08-07 17:10:00,74.6,53.7,29.98,North,0,0.0,0.0,48,0.00,,,0.00,WUHU21623XXSP,2013-08-07 22:10:00,
2013-08-07 17:15:00,74.5,54.1,29.98,North,0,0.0,0.0,49,0.00,,,0.00,WUHU21623XXSP,2013-08-07 22:15:00,
2013-08-07 17:20:00,74.6,54.2,29.98,North,0,0.0,0.0,49,0.00,,,0.00,WUHU21623XXSP,2013-08-07 22:20:00,
2013-08-07 17:25:00,74.4,53.5,29.98,North,0,0.0,0.0,48,0.00,,,0.00,WUHU21623XXSP,2013-08-07 22:25:00,
2013-08-07 17:30:00,74.3,52.8,29.98,North,0,0.0,0.0,47,0.00,,,0.00,WUHU21623XXSP,2013-08-07 22:30:00,
2013-08-07 17:35:00,74.0,53.1,29.98,North,0,0.0,0.0,48,0.00,,,0.00,WUHU21623XXSP,2013-08-07 22:35:00,
2013-08-07 17:40:00,73.8,52.3,29.98,North,0,0.0,0.0,47,0.00,,,0.00,WUHU21623XXSP,2013-08-07 22:40:00,
2013-08-07 17:45:00,73.8,52.9,29.98,North,0,0.0,0.0,48,0.00,,,0.00,WUHU21623XXSP,2013-08-07 22:45:00,
2013-08-07 17:50:00,74.0,53.1,29.98,North,0,0.0,0.0,48,0.00,,,0.00,WUHU21623XXSP,2013-08-07 22:50:00,
2013-08-07 17:55:00,74.2,52.7,29.98,North,0,0.0,0.0,47,0.00,,,0.00,WUHU21623XXSP,2013-08-07 22:55:00,
2013-08-07 18:00:00,74.5,52.9,29.98,North,0,0.0,0.0,47,0.00,,,0.00,WUHU21623XXSP,2013-08-07 23:00:00,
2013-08-07 18:05:00,74.4,52.9,29.98,North,0,0.0,0.0,47,0.00,,,0.00,WUHU21623XXSP,2013-08-07 23:05:00,
2013-08-07 18:10:00,74.7,52.6,29.98,North,0,0.0,0.0,46,0.00,,,0.00,WUHU21623XXSP,2013-08-07 23:10:00,
2013-08-07 18:15:00,75.2,53.0,29.98,North,0,0.0,0.0,46,0.00,,,0.00,WUHU21623XXSP,2013-08-07 23:15:00,
2013-08-07 18:20:00,75.3,54.3,29.98,North,0,0.0,0.0,48,0.00,,,0.00,WUHU21623XXSP,2013-08-07 23:20:00,
2013-08-07 18:25:00,75.1,53.5,29.98,North,0,0.0,0.0,47,0.00,,,0.00,WUHU21623XXSP,2013-08-07 23:25:00,
2013-08-07 18:30:00,75.2,53.0,29.98,North,0,0.0,0.0,46,0.00,,,0.00,WUHU21623XXSP,2013-08-07 23:30:00,
2013-08-07 18:35:00,75.2,52.4,29.98,North,0,0.0,0.0,45,0.00,,,0.00,WUHU21623XXSP,2013-08-07 23:35:00,
2013-08-07 18:40:00,75.2,53.6,29.98,North,0,0.0,0.0,47,0.00,,,0.00,WUHU21623XXSP,2013-08-07 23:40:00,
2013-08-07 18:45:00,75.1,52.9,29.98,North,0,0.0,0.0,46,0.00,,,0.00,WUHU21623XXSP,2013-08-07 23:45:00,
2013-08-07 18:50:00,75.1,52.3,29.98,North,0,0.0,0.0,45,0.00,,,0.00,WUHU21623XXSP,2013-08-07 23:50:00,
2013-08-07 18:55:00,75.3,52.5,29.98,North,0,0.0,0.0,45,0.00,,,0.00,WUHU21623XXSP,2013-08-07 23:55:00,
2013-08-07 19:00:00,75.7,52.8,29.98,North,0,0.0,0.0,45,0.00,,,0.00,WUHU21623XXSP,2013-08-08 00:00:00,
2013-08-07 19:05:00,75.8,52.9,29.98,North,0,0.0,0.0,45,0.00,,,0.00,WUHU21623XXSP,2013-08-08 00:05:00,
2013-08-07 19:10:00,75.8,53.6,29.98,North,0,0.0,0.0,46,0.00,,,0.00,WUHU21623XXSP,2013-08-08 00:10:00,
2013-08-07 19:15:00,75.8,54.2,29.98,North,0,0.0,0.0,47,0.00,,,0.00,WUHU21623XXSP,2013-08-08 00:15:00,
2013-08-07 19:20:00,75.7,54.1,29.98,North,0,0.0,0.0,47,0.00,,,0.00,WUHU21623XXSP,2013-08-08 00:20:00,
2013-08-07 19:26:00,75.6,54.0,29.98,North,0,0.0,0.0,47,0.00,,,0.00,WUHU21623XXSP,2013-08-08 00:26:00,
2013-08-07 19:31:00,75.6,54.6,29.98,North,0,0.0,0.0,48,0.00,,,0.00,WUHU21623XXSP,2013-08-08 00:31:00,
2013-08-07 19:36:00,75.9,55.4,29.98,North,0,0.0,0.0,49,0.00,,,0.00,WUHU21623XXSP,2013-08-08 00:36:00,
2013-08-07 19:41:00,76.4,55.9,29.98,North,0,0.0,0.0,49,0.00,,,0.00,WUHU21623XXSP,2013-08-08 00:41:00,
2013-08-07 19:46:00,76.5,56.0,29.98,North,0,0.0,0.0,49,0.00,,,0.00,WUHU21623XXSP,2013-08-08 00:46:00,
2013-08-07 19:51:00,76.7,56.2,29.98,North,0,0.0,0.0,49,0.00,,,0.00,WUHU21623XXSP,2013-08-08 00:51:00,
2013-08-07 19:56:00,76.8,56.8,29.98,North,0,0.0,0.0,50,0.00,,,0.00,WUHU21623XXSP,2013-08-08 00:56:00,
2013-08-07 20:01:00,76.7,56.7,29.98,North,0,0.0,0.0,50,0.00,,,0.00,WUHU21623XXSP,2013-08-08 01:01:00,
2013-08-07 20:06:00,76.4,56.4,29.98,North,0,0.0,0.0,50,0.00,,,0.00,WUHU21623XXSP,2013-08-08 01:06:00,
2013-08-07 20:11:00,75.7,55.9,29.98,North,0,0.0,0.0,50,0.00,,,0.00,WUHU21623XXSP,2013-08-08 01:11:00,
2013-08-07 20:16:00,75.1,56.4,29.98,North,0,0.0,0.0,52,0.00,,,0.00,WUHU21623XXSP,2013-08-08 01:16:00,
2013-08-07 20:21:00,73.4,55.4,29.98,North,0,0.0,0.0,53,0.00,,,0.00,WUHU21623XXSP,2013-08-08 01:21:00,
2013-08-07 20:26:00,72.4,55.0,29.98,North,0,0.0,0.0,54,0.00,,,0.00,WUHU21623XXSP,2013-08-08 01:26:00,
2013-08-07 20:31:00,71.6,54.7,29.99,North,0,0.0,0.0,55,0.00,,,0.00,WUHU21623XXSP,2013-08-08 01:31:00,
2013-08-07 20:36:00,70.6,54.2,29.99,North,0,0.0,0.0,56,0.00,,,0.00,WUHU21623XXSP,2013-08-08 01:36:00,
2013-08-07 20:41:00,69.9,54.6,29.99,North,0,0.0,0.0,58,0.00,,,0.00,WUHU21623XXSP,2013-08-08 01:41:00,
2013-08-07 20:46:00,69.3,54.5,29.99,North,0,0.0,0.0,59,0.00,,,0.00,WUHU21623XXSP,2013-08-08 01:46:00,
2013-08-07 20:51:00,68.5,54.3,29.99,North,0,0.0,0.0,60,0.00,,,0.00,WUHU21623XXSP,2013-08-08 01:51:00,
2013-08-07 20:56:00,68.1,54.3,30.00,North,0,0.0,0.0,61,0.00,,,0.00,WUHU21623XXSP,2013-08-08 01:56:00,
2013-08-07 21:01:00,67.6,54.3,30.00,North,0,0.0,0.0,62,0.00,,,0.00,WUHU21623XXSP,2013-08-08 02:01:00,
2013-08-07 21:06:00,67.1,53.8,30.00,North,0,0.0,0.0,62,0.00,,,0.00,WUHU21623XXSP,2013-08-08 02:06:00,
2013-08-07 21:11:00,67.0,54.2,30.00,North,0,0.0,0.0,63,0.00,,,0.00,WUHU21623XXSP,2013-08-08 02:11:00,
2013-08-07 21:16:00,66.7,54.3,30.00,North,0,0.0,0.0,64,0.00,,,0.00,WUHU21623XXSP,2013-08-08 02:16:00,
2013-08-07 21:21:00,66.4,54.1,30.01,North,0,0.0,0.0,64,0.00,,,0.00,WUHU21623XXSP,2013-08-08 02:21:00,
2013-08-07 21:26:00,66.3,54.3,30.01,North,0,0.0,0.0,65,0.00,,,0.00,WUHU21623XXSP,2013-08-08 02:26:00,
2013-08-07 21:31:00,66.0,54.1,30.01,North,0,0.0,0.0,65,0.00,,,0.00,WUHU21623XXSP,2013-08-08 02:31:00,
2013-08-07 21:36:00,66.0,54.5,30.01,North,0,0.0,0.0,66,0.00,,,0.00,WUHU21623XXSP,2013-08-08 02:36:00,
2013-08-07 21:41:00,66.0,54.5,30.01,North,0,0.0,0.0,66,0.00,,,0.00,WUHU21623XXSP,2013-08-08 02:41:00,
2013-08-07 21:46:00,66.0,54.9,30.01,North,0,0.0,0.0,67,0.00,,,0.00,WUHU21623XXSP,2013-08-08 02:46:00,
2013-08-07 21:51:00,65.7,54.6,30.01,North,0,0.0,0.0,67,0.00,,,0.00,WUHU21623XXSP,2013-08-08 02:51:00,
2013-08-07 21:56:00,65.9,54.8,30.01,North,0,0.0,0.0,67,0.00,,,0.00,WUHU21623XXSP,2013-08-08 02:56:00,
2013-08-07 22:01:00,65.8,55.0,30.01,North,0,0.0,0.0,68,0.00,,,0.00,WUHU21623XXSP,2013-08-08 03:01:00,
2013-08-07 22:06:00,65.7,54.8,30.01,North,0,0.0,0.0,68,0.00,,,0.00,WUHU21623XXSP,2013-08-08 03:06:00,
2013-08-07 22:11:00,65.5,54.6,30.02,North,0,0.0,0.0,68,0.00,,,0.00,WUHU21623XXSP,2013-08-08 03:11:00,
2013-08-07 22:16:00,65.1,54.9,30.02,North,0,0.0,0.0,69,0.00,,,0.00,WUHU21623XXSP,2013-08-08 03:16:00,
2013-08-07 22:21:00,64.9,54.6,30.01,North,0,0.0,0.0,69,0.00,,,0.00,WUHU21623XXSP,2013-08-08 03:21:00,
2013-08-07 22:26:00,64.8,54.8,30.01,North,0,0.0,0.0,70,0.00,,,0.00,WUHU21623XXSP,2013-08-08 03:26:00,
2013-08-07 22:32:00,64.6,54.7,30.02,North,0,0.0,0.0,70,0.00,,,0.00,WUHU21623XXSP,2013-08-08 03:32:00,
2013-08-07 22:37:00,64.2,54.5,30.02,North,0,0.0,0.0,70,0.00,,,0.00,WUHU21623XXSP,2013-08-08 03:37:00,
2013-08-07 22:42:00,64.2,54.7,30.02,North,0,0.0,0.0,71,0.00,,,0.00,WUHU21623XXSP,2013-08-08 03:42:00,
2013-08-07 22:47:00,64.0,54.5,30.02,North,0,0.0,0.0,71,0.00,,,0.00,WUHU21623XXSP,2013-08-08 03:47:00,
2013-08-07 22:52:00,63.9,54.3,30.02,North,0,0.0,0.0,71,0.00,,,0.00,WUHU21623XXSP,2013-08-08 03:52:00,
2013-08-07 22:57:00,63.7,54.5,30.02,North,0,0.0,0.0,72,0.00,,,0.00,WUHU21623XXSP,2013-08-08 03:57:00,
2013-08-07 23:01:00,63.7,54.5,30.02,North,0,0.0,0.0,72,0.00,,,0.00,WUHU21623XXSP,2013-08-08 04:01:00,
2013-08-07 23:06:00,63.3,54.3,30.02,North,0,0.0,0.0,73,0.00,,,0.00,WUHU21623XXSP,2013-08-08 04:06:00,
2013-08-07 23:11:00,63.1,54.3,30.02,North,0,0.0,0.0,73,0.00,,,0.00,WUHU21623XXSP,2013-08-08 04:11:00,
2013-08-07 23:16:00,63.0,54.7,30.03,North,0,0.0,0.0,74,0.00,,,0.00,WUHU21623XXSP,2013-08-08 04:16:00,
2013-08-07 23:21:00,63.0,54.5,30.03,North,0,0.0,0.0,74,0.00,,,0.00,WUHU21623XXSP,2013-08-08 04:21:00,
2013-08-07 23:26:00,62.8,54.7,30.03,North,0,0.0,0.0,75,0.00,,,0.00,WUHU21623XXSP,2013-08-08 04:26:00,
2013-08-07 23:31:00,62.8,54.7,30.02,North,0,0.0,0.0,75,0.00,,,0.00,WUHU21623XXSP,2013-08-08 04:31:00,
2013-08-07 23:36:00,62.6,54.9,30.02,North,0,0.0,0.0,76,0.00,,,0.00,WUHU21623XXSP,2013-08-08 04:36:00,
2013-08-07 23:41:00,62.6,54.9,30.02,North,0,0.0,0.0,76,0.00,,,0.00,WUHU21623XXSP,2013-08-08 04:41:00,
2013-08-07 23:46:00,62.4,55.1,30.02,North,0,0.0,0.0,77,0.00,,,0.00,WUHU21623XXSP,2013-08-08 04:46:00,
2013-08-07 23:51:00,62.2,54.9,30.02,North,0,0.0,0.0,77,0.00,,,0.00,WUHU21623XXSP,2013-08-08 04:51:00,
2013-08-07 23:56:00,62.2,54.9,30.02,North,0,0.0,0.0,77,0.00,,,0.00,WUHU21623XXSP,2013-08-08 04:56:00,